SB KEPS @ AMSAT $ORB26167.1 2Line Orbital Elements 26167.AMSAT QST de W1STR AMSAT Orbital Elements for Amateur Satellites in TLE Format From Orbital Analysis Office New England Sci-Tech STEM Education Center Natick MA June 16, 2026 To all radio amateurs These element sets describe the orbits of various satellites in use by the amateur radio community. For details see: www.amsat.org/keplerian-elements-formats/ A daily update of element sets is available at: www.amsat.org/tle/daily-bulletin.txt or without bulletin text: www.amsat.org/tle/dailytle.txt AO-07 1 07530U 74089B 26167.33394869 -.00000041 00000-0 34184-4 0 9990 2 07530 101.9900 180.5717 0012563 131.7139 239.8615 12.53698098360417 UO-11 1 14781U 84021B 26167.28169156 .00000975 00000-0 10480-3 0 9993 2 14781 97.8058 132.8664 0007553 175.4457 184.6832 14.90781391256999 LO-19 1 20442U 90005G 26167.13543233 .00000094 00000-0 50454-4 0 9997 2 20442 98.8851 188.9121 0011065 204.3265 155.7398 14.34122929902240 AO-27 1 22825U 93061C 26167.16078916 .00000088 00000-0 50437-4 0 9997 2 22825 98.6881 234.5747 0009533 102.3705 257.8545 14.30942024706852 FO-29 1 24278U 96046B 26166.83242779 .00000013 00000-0 45763-4 0 9994 2 24278 98.5240 15.8902 0350885 99.9379 264.1549 13.53274294472984 GO-32 1 25397U 98043D 26167.22147388 .00000030 00000-0 33141-4 0 9996 2 25397 99.0067 159.9557 0001002 165.2007 194.9200 14.24428195451199 ISS 1 25544U 98067A 26167.09292088 .00007536 00000-0 14355-3 0 9992 2 25544 51.6337 305.5091 0004806 191.3253 168.7628 15.49253146571586 NO-44 1 26931U 01043C 26167.32117018 .00000076 00000-0 59469-4 0 9994 2 26931 67.0506 246.5117 0006075 264.6172 95.4237 14.31955843290328 SO-50 1 27607U 02058C 26167.27867643 .00000856 00000-0 11841-3 0 9999 2 27607 64.5510 131.7962 0075279 262.6422 96.6125 14.83045303264325 CO-55 1 27844U 03031E 26167.26444773 .00000236 00000-0 12107-3 0 9996 2 27844 98.6736 175.8349 0009468 180.6624 179.4544 14.24335232191540 RS-22 1 27939U 03042A 26167.34069624 .00000437 00000-0 75630-4 0 9994 2 27939 98.3462 351.6754 0009935 272.8490 208.6737 14.73465031215424 CO-65 1 32785U 08021C 26167.25441198 .00003812 00000-0 24216-3 0 9994 2 32785 97.8271 148.6535 0009883 42.0213 318.1772 15.09444415985056 CO-66 1 32791U 08021J 26166.96044239 .00015094 00000-0 47997-3 0 9999 2 32791 97.7511 164.7995 0001226 8.5431 351.5831 15.32715926987109 RS-30 1 32953U 08025A 26167.29368187 .00000092 00000-0 58839-3 0 9990 2 32953 82.5038 355.9964 0018900 315.9355 44.0218 12.43179662819581 SRMSAT 1 37841U 11058D 26167.08586324 .00000355 00000-0 48745-4 0 9991 2 37841 19.9722 66.1331 0011815 191.4739 210.8496 14.11575350757668 ZACUBE-1 1 39417U 13066B 26167.14083163 .00002688 00000-0 21090-3 0 9997 2 39417 97.8082 129.4722 0040689 251.3313 108.3491 15.01184047680575 Delfi-N3xt 1 39428U 13066N 26167.30786233 .00004062 00000-0 35684-3 0 9997 2 39428 97.8339 87.6203 0073637 208.6468 151.0699 14.95071154674491 GOMX-1 1 39430U 13066Q 26167.30075272 .00001511 00000-0 23141-3 0 9995 2 39430 97.6477 7.8198 0130178 80.3496 281.2389 14.69457255669781 LO-74 1 39440U 13066AA 26167.12537931 .00003994 00000-0 37024-3 0 9993 2 39440 97.8908 116.0990 0058456 32.4816 327.9979 14.93754109676830 AO-73 1 39444U 13066AE 26167.19478169 .00005705 00000-0 35517-3 0 9998 2 39444 97.8274 138.6199 0035560 204.3953 155.5593 15.09480360679512 DTUSAT-2 1 40030U 14033W 26166.98300437 .00005570 00000-0 30209-3 0 9997 2 40030 98.0859 164.6336 0006518 229.8960 130.1700 15.15005742652503 LILACSAT-2 1 40908U 15049K 26167.30477911 .00014150 00000-0 24158-3 0 9998 2 40908 97.4642 204.1128 0005461 249.1655 110.9012 15.51420206595617 Horyu-4 1 41340U 16012D 26166.43547623 .00392649 54783-4 97992-3 0 9990 2 41340 30.9849 91.8834 0005149 261.3375 98.6703 15.94546005570538 Lapan A3 1 41603U 16040E 26167.27738226 .00002939 00000-0 94134-4 0 9992 2 41603 97.1486 163.4530 0010987 28.8573 331.3275 15.33099705554674 CAS-2T 1 41847U 16066G 26167.20170864 .00001550 00000-0 22417-3 0 9993 2 41847 98.3821 242.9493 0342753 132.4604 230.6111 14.44691734504651 TechnoSat 1 42829U 17042E 26167.31842384 .00003464 00000-0 24768-3 0 9991 2 42829 97.4281 325.0087 0018889 96.9439 263.3938 15.04956334486571 AO-91 1 43017U 17073E 26167.14963034 .00006534 00000-0 28659-3 0 9996 2 43017 97.4703 34.3858 0149692 332.8831 26.4636 15.12705652465238 S-Net D 1 43186U 18014G 26167.27431769 .00004534 00000-0 23493-3 0 9997 2 43186 97.5367 72.0710 0009030 33.3736 326.8064 15.16666614458621 S-Net B 1 43187U 18014H 26167.28575302 .00004536 00000-0 23520-3 0 9994 2 43187 97.5373 72.0691 0009526 28.1461 332.0285 15.16636172458624 S-Net A 1 43188U 18014J 26167.27320021 .00004490 00000-0 23258-3 0 9997 2 43188 97.5383 72.2651 0009448 28.8165 331.3588 15.16674530458623 S-Net C 1 43189U 18014K 26167.28962437 .00004493 00000-0 23296-3 0 9997 2 43189 97.5399 72.3558 0010559 20.6348 339.5309 15.16628083457178 Ten-Koh 1 43677U 18084G 26167.25818502 .00001745 00000-0 13469-3 0 9994 2 43677 98.0772 359.5828 0011482 116.8447 243.3952 15.02940691416027 PO-101 1 43678U 18084H 26167.30293372 .00001897 00000-0 15583-3 0 9990 2 43678 98.1175 3.4727 0012428 172.9474 187.1925 15.00447809416085 QO-100 1 43700U 18090A 26167.11962374 .00000144 00000-0 00000-0 0 9996 2 43700 0.0173 5.4784 0001594 118.9306 208.8329 1.00270088 27661 MinXSS-2 1 43758U 18099A 26167.18613502 .00030173 00000-0 60088-3 0 9991 2 43758 97.4540 243.4410 0006548 259.1874 100.8639 15.46840470413975 AO-95 1 43770U 18099N 26167.16008802 .00008871 00000-0 34028-3 0 9999 2 43770 97.4381 227.4098 0008085 1.8957 358.2311 15.26694491413062 SNUSat 2 1 43782U 18099AA 26167.08401475 .00006914 00000-0 30709-3 0 9994 2 43782 97.4055 220.4845 0008668 303.2492 56.7913 15.21824742412860 SnugLite 1 43784U 18099AC 26167.09531525 .00010281 00000-0 38869-3 0 9994 2 43784 97.3866 221.3860 0001249 300.5786 59.5329 15.27159751413154 ITASat 1 1 43786U 18099AE 26167.09945745 .00005979 00000-0 28803-3 0 9994 2 43786 97.4027 218.6326 0012212 4.0961 356.0371 15.19046010412745 EAGLET 1 1 43790U 18099AJ 26166.92846303 .00003256 00000-0 18820-3 0 9994 2 43790 97.4231 216.6305 0010784 359.0796 1.0413 15.12932768412148 ESEO 1 43792U 18099AL 26167.04948212 .00001944 00000-0 14379-3 0 9999 2 43792 97.3973 204.4861 0011445 343.7457 16.3401 15.04244223411635 JO-97 1 43803U 18099AX 26167.11705126 .00014353 00000-0 44350-3 0 9995 2 43803 97.4130 229.9474 0004293 267.4350 92.6401 15.33625681413466 Suomi 100 1 43804U 18099AY 26167.15874235 .00009650 00000-0 35133-3 0 9991 2 43804 97.4187 227.5556 0008340 283.4509 76.5801 15.28396054413261 ISAT 1 43879U 18111D 26167.07538413 .00083284 00000-0 83984-3 0 9996 2 43879 97.5888 102.2115 0000850 126.1784 233.9554 15.65112490410990 UWE-4 1 43880U 18111E 26167.05014457 .00026306 00000-0 53861-3 0 9996 2 43880 97.5856 95.3888 0005718 347.9262 12.1848 15.46065532410602 Sparrow 1 43881U 18111F 26166.79623101 .00135517 00000-0 93885-3 0 9994 2 43881 97.6127 107.5042 0004412 112.0374 248.1359 15.74068437411155 Prox-1 1 44339U 19036A 26167.18701798 .00010486 00000-0 10169-2 0 9993 2 44339 23.9937 120.9336 0005681 25.8982 334.1802 14.90587417373321 Taurus 1 1 44530U 19059C 26167.29117521 .00005664 00000-0 90861-3 0 9998 2 44530 98.6410 332.0631 0007434 319.7873 40.2782 14.72089761358510 TO-108 1 44881U 19093C 26167.23699984 .00001296 00000-0 15222-3 0 9992 2 44881 97.7539 239.4921 0015129 89.7707 270.5243 14.86520887351273 RS-44 1 44909U 19096E 26167.22337952 .00000013 00000-0 28023-5 0 9990 2 44909 82.5218 340.3455 0218125 146.4115 215.1037 12.79748866302225 SALSAT 1 46495U 20068K 26166.96813813 .00006820 00000-0 23912-3 0 9990 2 46495 97.8844 169.9584 0008114 313.3675 46.6887 15.29785416315178 CSS (TIANHE-1) 1 48274U 21035A 26167.08121934 .00020101 00000-0 23775-3 0 9997 2 48274 41.4696 328.7320 0007464 68.7189 291.4446 15.60769173292998 CUTE 1 49263U 21088D 26167.24534176 .00142719 97942-5 41382-3 0 9998 2 49263 97.4157 266.4478 0007691 229.6292 130.4311 15.92939342262405 TeikyoSat 4 1 49396U 21102B 26167.32518978 .00001368 00000-0 89042-4 0 9997 2 49396 97.3672 196.8422 0010528 300.2729 59.7458 15.09505869252597 Z-Sat 1 49399U 21102E 26167.34119647 .00002628 00000-0 13121-3 0 9996 2 49399 97.3320 202.6894 0014844 247.9242 112.0417 15.18258505253312 KOSEN 1 1 49402U 21102H 26167.09304086 .00006035 00000-0 23118-3 0 9999 2 49402 97.3180 209.2714 0013074 204.4392 155.6229 15.26822838253851 HO-113 1 50466U 21131B 26167.29100005 .00000460 00000-0 15581-3 0 9991 2 50466 98.4987 259.6853 0005370 98.8882 261.2915 14.41357076234984 SNUGLITE 2 1 52899U 22065F 26167.14274777 .00000795 00000-0 15977-3 0 9992 2 52899 98.2200 311.9750 0008068 36.0473 324.1272 14.64346038210842 UmKA 1 (RS40S) 1 57172U 23091G 26167.30436376 .00005728 00000-0 26223-3 0 9991 2 57172 97.5050 226.0049 0014224 120.4106 239.8537 15.20810830163870 CubeBel-2 (EU11S) 1 57175U 23091K 26167.26770535 .00011167 00000-0 39674-3 0 9995 2 57175 97.5052 230.4761 0011273 117.4905 242.7482 15.29133277164166 RS-38S 1 57189U 23091Z 26167.30072381 .00013783 00000-0 39487-3 0 9997 2 57189 97.5094 236.7677 0008320 80.4667 279.7516 15.36003143164552 SONATE-2 1 59112U 24043Q 26166.66172283 .00034167 00000-0 44548-3 0 9996 2 59112 97.5531 316.9638 0007015 200.7175 159.3797 15.58618776127657 GRBBeta 1 60237U 24128C 26167.29088496 .00002722 00000-0 19395-3 0 9996 2 60237 61.9886 219.4111 0040768 134.4896 225.9542 15.06634918106130 Curium One 1 60242U 24128H 26167.31066594 .00005179 00000-0 30318-3 0 9997 2 60242 61.9768 208.8798 0039850 130.6246 229.8327 15.12502511106320 ROBUSTA-3A 1 60243U 24128J 26167.27493770 .00004469 00000-0 26919-3 0 9996 2 60243 61.9850 211.4709 0041457 127.8615 232.6243 15.11669085106282 CatSat 1 60246U 24125J 26166.85565439 .00051745 00000-0 66833-3 0 9999 2 60246 97.2081 19.3393 0022286 183.9660 176.1423 15.58506663107184 HYPERVIEW-1G (RS66S) 1 61772U 24199AP 26167.30054371 .00122910 00000-0 79732-3 0 9999 2 61772 97.2868 46.9754 0003566 223.1722 136.9264 15.75636831134531 AO-123 1 61781U 24199AY 26167.25275125 .00006263 00000-0 18251-3 0 9996 2 61781 97.2997 35.9322 0012385 317.9891 42.0402 15.35664562133786 JINJUSat 1B 1 63210U 25052A 26167.23240611 .00013375 00000-0 41531-3 0 9993 2 63210 97.4008 63.9863 0005508 92.7581 267.4292 15.33479813 69952 NUSHSAT 1 1 63211U 25052B 26167.21248585 .00016970 00000-0 48670-3 0 9995 2 63211 97.3985 64.5288 0005219 95.4384 264.7456 15.35939786 69992 TEVEL2-4 1 63213U 25052D 26167.26931493 .00015325 00000-0 45918-3 0 9994 2 63213 97.3909 63.6594 0004838 105.2183 254.9595 15.34584651 69972 TEVEL2-5 1 63214U 25052E 26167.22449878 .00014846 00000-0 44740-3 0 9991 2 63214 97.3905 63.5630 0004772 106.2124 253.9644 15.34410559 69960 TEVEL2-6 1 63215U 25052F 26167.17159245 .00015102 00000-0 45558-3 0 9996 2 63215 97.3912 63.4942 0004675 107.3196 252.8558 15.34373601 69954 TEVEL2-1 1 63217U 25052H 26167.26550395 .00014362 00000-0 44072-3 0 9996 2 63217 97.3881 63.2139 0004726 115.4259 244.7474 15.33842232 69951 TEVEL2-3 1 63218U 25052J 26167.26018018 .00014748 00000-0 45169-3 0 9994 2 63218 97.3885 63.2303 0004687 115.4996 244.6732 15.33897965 69952 TEVEL2-2 1 63219U 25052K 26167.26582291 .00014493 00000-0 44459-3 0 9992 2 63219 97.3884 63.2168 0004697 115.9068 244.2659 15.33851140 69956 TEVEL2-9 1 63237U 25052AD 26167.24205412 .00013382 00000-0 43670-3 0 9997 2 63237 97.3945 62.5701 0007712 133.4676 226.7209 15.31874354 69888 TEVEL2-7 1 63238U 25052AE 26167.21744605 .00012834 00000-0 42279-3 0 9992 2 63238 97.3947 62.4621 0007791 133.8120 226.3767 15.31578463 69872 TEVEL2-8 1 63239U 25052AF 26167.22568787 .00012612 00000-0 41573-3 0 9999 2 63239 97.3946 62.4473 0007811 134.2728 225.9156 15.31562916 69872 SPIRONE 1 66657U 25274H 26167.04902723 .00001346 00000-0 13294-3 0 9995 2 66657 97.7484 96.3567 0012775 25.0589 335.1248 14.93541320 30054 K-HERO 1 66660U 25274L 26167.25487315 .00001467 00000-0 14293-3 0 9991 2 66660 97.7488 96.7196 0014733 27.7042 332.4960 14.93958967 30097 SNUGLITE-III DURI 1 66661U 25274M 26167.30964935 .00001353 00000-0 13207-3 0 9994 2 66661 97.7487 96.7942 0015391 28.2332 331.9720 14.94000162 30101 SAKHACUBE-CHOLBON 1 67290U 25313AU 26167.17595455 .00007698 00000-0 31216-3 0 9997 2 67290 97.3934 242.2231 0008951 9.0231 351.1166 15.24873266 25829 RS95S (QMR-KWT-2) 1 67291U 25313AV 26167.16515032 .00011451 00000-0 44386-3 0 9994 2 67291 97.3934 242.3857 0008304 6.9737 353.1616 15.26271791 25834 Ten-Koh2 1 68261U 25241B 26166.70419506 .00005304 00000-0 23027-3 0 9999 2 68261 51.6697 326.6857 0006067 137.6687 222.4761 15.23889978 14686 JACK-002 1 68417U 26067B 26166.84428506 .00005618 00000-0 26876-3 0 9997 2 68417 97.4569 125.4515 0000341 9.1212 351.0029 15.19380013 11748 DISCO 2 1 68431U 26067R 26167.12866036 .00006487 00000-0 31264-3 0 9991 2 68431 97.4604 125.7210 0002935 45.9881 314.1595 15.19059281 11782 HADES-SA (SpinnyONE) 1 68446U 26067AG 26167.16785264 .00015916 00000-0 76129-3 0 9990 2 68446 97.4405 125.4794 0009421 84.3764 275.8544 15.19029817 11773 PARUS-6U1 1 68456U 26067AS 26166.86965598 .00004396 00000-0 22248-3 0 9990 2 68456 97.4555 125.2534 0007542 75.3389 284.8680 15.17505008 11731 SAL-E 1 68458U 26067AU 26166.86529771 .00005912 00000-0 29600-3 0 9995 2 68458 97.4479 125.1861 0007984 82.5444 277.6697 15.17739511 11738 FSI-SAT 2 1 68792U 26088A 26167.15685626 .00004139 00000-0 28108-3 0 9996 2 68792 97.5070 316.4414 0015752 110.0560 250.2365 15.06830364 8139 OrigamiSat 2 1 68795U 26088D 26167.16734630 .00010976 00000-0 70103-3 0 9998 2 68795 97.5069 316.5847 0016043 84.5333 275.7725 15.08716801 8142 ARICA 2 1 68796U 26088E 26167.16640732 .00004311 00000-0 28016-3 0 9990 2 68796 97.5058 316.5744 0016946 83.4490 276.8667 15.08420526 8144 WASEDA-SAT-ZERO-II 1 68797U 26088F 26167.22859560 .00005717 00000-0 36805-3 0 9995 2 68797 97.5058 316.6436 0016738 83.1713 277.1419 15.08634333 8151 MANGARO-II-Piscus 1 68798U 26088G 26167.15281846 .00003577 00000-0 23055-3 0 9999 2 68798 97.5069 316.5984 0020541 85.7488 274.6088 15.08780313 8148 IO-86 1 40931U 25360.30710720 .00000000 00000-0 12800-3 0 00 2 40931 6.0006 332.5373 0012733 338.8432 8.1437 14.79075515 01 LILIUM-4 1 71922C 26067AC 26089.50133053 -.00014632 00000+0 -74472-3 0 04 2 71922 97.4497 49.1617 0004341 5.9603 355.7042 15.16896692 16 /EX